QPF
0.00 0.00 0.00 0.00 0.00 0.00 0.00 0.00 0.00 0.00 0.00 0.00 0.00 0.00 0.00 0.00 0.00 0.00 0.00 0.00 0.00 0.00 0.00 0.00 0.00 0.00 0.00 0.00 0.00 0.00 0.00 0.00 0.00 0.00 0.00 0.00 0.00 0.00 0.00 0.00 0.00 0.00 0.00
0.00 0.00 0.00 0.00 0.00 0.00 0.00 0.00 0.00 0.00 0.00 0.00 0.00 0.00 0.00 0.00 0.00 0.00 0.00 0.00 0.00 0.00 0.00 0.00 0.00 0.00 0.00 0.00 0.00 0.00 0.00 0.00 0.00 0.00 0.00 0.00 0.00 0.00 0.00 0.00 0.00 0.00 0.00
0.00 0.00 0.00 0.00 0.00 0.00 0.00 0.00 0.00 0.00 0.00 0.00 0.00 0.00 0.00 0.00 0.00 0.00 0.00 0.00 0.00 0.00 0.00 0.00 0.00 0.00 0.00 0.00 0.00 0.00 0.00 0.00 0.00 0.00 0.00 0.00 0.00 0.00 0.00 0.00 0.00 0.00 0.00
0.00 0.00 0.00 0.00 0.00 0.00 0.00 0.00 0.00 0.00 0.00 0.00 0.00 0.00 0.00 0.00 0.00 0.00 0.00 0.00 0.00 0.00 0.00 0.00 0.00 0.00 0.00 0.00 0.00 0.00 0.00 0.00 0.00 0.00 0.00 0.00 0.00 0.00 0.00 0.00 0.00 0.00 0.00
0.00 0.00 0.00 0.00 0.00 0.00 0.00 0.00 0.00 0.00 0.00 0.00 0.00 0.00 0.00 0.00 0.00 0.00 0.00 0.00 0.00 0.00 0.00 0.00 0.00 0.00 0.00 0.00 0.00 0.00 0.00 0.00 0.00 0.00 0.00 0.00 0.00 0.00 0.00 0.00 0.00 0.00 0.00
0.01 0.01 0.00 0.00 0.00 0.00 0.00 0.00 0.00 0.00 0.00 0.00 0.00 0.00 0.00 0.00 0.00 0.00 0.00 0.00 0.00 0.00 0.00 0.00 0.00 0.00 0.00 0.00 0.00 0.00 0.00 0.00 0.00 0.00 0.00 0.00 0.00 0.00 0.00 0.00 0.00 0.00 0.00
0.04 0.03 0.01 0.01 0.00 0.00 0.00 0.00 0.00 0.00 0.00 0.00 0.00 0.00 0.00 0.00 0.00 0.00 0.00 0.00 0.00 0.00 0.00 0.00 0.00 0.00 0.00 0.00 0.00 0.00 0.00 0.00 0.00 0.00 0.00 0.00 0.00 0.00 0.00 0.00 0.00 0.00 0.00
0.07 0.05 0.03 0.02 0.01 0.01 0.00 0.00 0.00 0.00 0.00 0.00 0.00 0.00 0.00 0.00 0.00 0.00 0.00 0.00 0.00 0.00 0.00 0.00 0.00 0.00 0.00 0.00 0.00 0.00 0.00 0.00 0.00 0.00 0.00 0.00 0.00 0.00 0.00 0.00 0.00 0.01 0.01
0.08 0.06 0.06 0.05 0.03 0.02 0.01 0.01 0.00 0.00 0.00 0.00 0.00 0.00 0.00 0.00 0.00 0.00 0.00 0.00 0.00 0.00 0.00 0.00 0.00 0.00 0.00 0.00 0.00 0.00 0.00 0.00 0.00 0.00 0.00 0.00 0.00 0.00 0.00 0.01 0.01 0.01 0.01
0.11 0.10 0.08 0.07 0.05 0.03 0.02 0.01 0.01 0.00 0.00 0.00 0.00 0.00 0.00 0.00 0.00 0.00 0.00 0.00 0.00 0.00 0.00 0.00 0.00 0.00 0.00 0.00 0.00 0.00 0.00 0.00 0.00 0.00 0.00 0.00 0.00 0.00 0.00 0.01 0.01 0.02 0.02
0.10 0.11 0.10 0.08 0.06 0.05 0.04 0.02 0.01 0.01 0.00 0.00 0.00 0.00 0.00 0.00 0.00 0.00 0.00 0.00 0.00 0.00 0.00 0.00 0.00 0.00 0.00 0.00 0.00 0.00 0.00 0.00 0.00 0.00 0.00 0.00 0.00 0.00 0.01 0.01 0.01 0.02 0.02
0.06 0.08 0.09 0.09 0.08 0.08 0.06 0.04 0.02 0.01 0.01 0.00 0.00 0.00 0.00 0.00 0.00 0.00 0.00 0.00 0.00 0.00 0.00 0.00 0.00 0.00 0.00 0.00 0.00 0.00 0.00 0.00 0.00 0.00 0.00 0.00 0.00 0.00 0.01 0.01 0.01 0.01 0.01
0.03 0.05 0.07 0.08 0.09 0.10 0.09 0.07 0.04 0.02 0.01 0.01 0.00 0.00 0.00 0.00 0.00 0.00 0.00 0.00 0.00 0.00 0.00 0.00 0.00 0.00 0.00 0.00 0.00 0.00 0.00 0.00 0.00 0.00 0.00 0.00 0.00 0.00 0.00 0.00 0.01 0.01 0.01
0.04 0.06 0.08 0.10 0.11 0.12 0.10 0.08 0.06 0.04 0.02 0.01 0.00 0.00 0.00 0.00 0.00 0.00 0.00 0.00 0.00 0.00 0.00 0.00 0.00 0.00 0.00 0.00 0.00 0.00 0.00 0.00 0.00 0.00 0.00 0.00 0.00 0.00 0.00 0.00 0.01 0.01 0.01
0.03 0.05 0.07 0.09 0.10 0.10 0.10 0.08 0.06 0.04 0.03 0.01 0.01 0.00 0.00 0.00 0.00 0.00 0.00 0.00 0.00 0.00 0.00 0.00 0.00 0.00 0.00 0.00 0.00 0.00 0.00 0.00 0.00 0.00 0.00 0.00 0.00 0.00 0.00 0.00 0.01 0.01 0.01
0.03 0.04 0.05 0.07 0.08 0.08 0.08 0.07 0.06 0.05 0.03 0.02 0.01 0.01 0.01 0.01 0.01 0.01 0.01 0.01 0.00 0.00 0.00 0.00 0.00 0.00 0.00 0.00 0.00 0.00 0.00 0.00 0.00 0.00 0.00 0.00 0.00 0.00 0.00 0.01 0.01 0.01 0.01
0.03 0.04 0.04 0.06 0.07 0.07 0.06 0.06 0.05 0.05 0.04 0.04 0.03 0.03 0.04 0.03 0.03 0.02 0.01 0.01 0.00 0.00 0.00 0.00 0.00 0.00 0.00 0.00 0.00 0.00 0.00 0.00 0.00 0.00 0.00 0.00 0.00 0.00 0.00 0.00 0.01 0.01 0.01
0.03 0.03 0.03 0.04 0.04 0.04 0.05 0.06 0.07 0.06 0.06 0.06 0.06 0.06 0.06 0.05 0.04 0.03 0.02 0.01 0.00 0.00 0.00 0.00 0.00 0.00 0.00 0.00 0.00 0.00 0.00 0.00 0.00 0.00 0.00 0.00 0.00 0.00 0.00 0.00 0.00 0.01 0.01
0.02 0.02 0.02 0.02 0.02 0.03 0.04 0.06 0.06 0.07 0.07 0.07 0.07 0.07 0.06 0.06 0.05 0.03 0.02 0.01 0.01 0.00 0.00 0.00 0.00 0.00 0.00 0.00 0.00 0.00 0.00 0.00 0.00 0.00 0.00 0.00 0.00 0.00 0.00 0.00 0.00 0.00 0.00
0.02 0.01 0.01 0.01 0.02 0.03 0.05 0.06 0.06 0.07 0.08 0.08 0.08 0.08 0.07 0.06 0.05 0.04 0.02 0.02 0.01 0.00 0.00 0.00 0.00 0.00 0.00 0.00 0.00 0.00 0.00 0.00 0.00 0.00 0.00 0.00 0.00 0.00 0.00 0.00 0.00 0.00 0.00
0.01 0.01 0.01 0.02 0.03 0.04 0.05 0.06 0.08 0.09 0.11 0.11 0.11 0.10 0.08 0.06 0.04 0.03 0.02 0.01 0.00 0.00 0.00 0.00 0.00 0.00 0.00 0.00 0.00 0.00 0.00 0.00 0.00 0.00 0.00 0.00 0.00 0.00 0.00 0.00 0.00 0.00 0.00
0.02 0.02 0.03 0.04 0.06 0.07 0.11 0.11 0.10 0.10 0.10 0.10 0.10 0.08 0.06 0.04 0.02 0.01 0.01 0.00 0.00 0.00 0.00 0.00 0.00 0.00 0.00 0.00 0.00 0.00 0.00 0.00 0.00 0.00 0.00 0.00 0.00 0.00 0.00 0.00 0.00 0.00 0.00
0.07 0.07 0.08 0.10 0.12 0.16 0.19 0.17 0.15 0.13 0.12 0.11 0.08 0.06 0.03 0.02 0.01 0.00 0.00 0.00 0.00 0.00 0.00 0.00 0.00 0.00 0.00 0.00 0.00 0.01 0.01 0.01 0.01 0.00 0.00 0.00 0.00 0.00 0.00 0.00 0.00 0.00 0.00
0.16 0.17 0.17 0.18 0.20 0.22 0.22 0.19 0.14 0.11 0.09 0.06 0.04 0.02 0.01 0.00 0.00 0.00 0.00 0.00 0.00 0.00 0.00 0.00 0.00 0.00 0.00 0.00 0.01 0.02 0.02 0.01 0.00 0.00 0.00 0.00 0.00 0.00 0.00 0.00 0.00 0.00 0.00
0.23 0.24 0.25 0.24 0.22 0.19 0.15 0.11 0.07 0.05 0.03 0.01 0.01 0.00 0.00 0.00 0.00 0.00 0.00 0.00 0.00 0.00 0.00 0.00 0.00 0.00 0.00 0.00 0.00 0.00 0.00 0.00 0.00 0.00 0.00 0.00 0.00 0.00 0.00 0.00 0.00 0.00 0.00
0.23 0.21 0.19 0.16 0.13 0.09 0.06 0.03 0.02 0.01 0.00 0.00 0.00 0.00 0.00 0.00 0.00 0.00 0.00 0.00 0.00 0.00 0.00 0.00 0.00 0.00 0.00 0.00 0.00 0.00 0.00 0.01 0.02 0.01 0.00 0.00 0.00 0.00 0.01 0.00 0.00 0.00 0.00
MSLP
1018.29 1018.61 1018.87 1019.10 1019.33 1019.57 1019.85 1020.16 1020.48 1020.80 1021.07 1021.28 1021.42 1021.49 1021.51 1021.51 1021.51 1021.54 1021.60 1021.71 1021.84 1021.99 1022.13 1022.25 1022.34 1022.40 1022.43 1022.45 1022.46 1022.46 1022.46 1022.44 1022.41 1022.37 1022.30 1022.21 1022.11 1021.98 1021.83 1021.67 1021.49 1021.30 1021.09
1017.99 1018.31 1018.60 1018.88 1019.16 1019.47 1019.82 1020.20 1020.59 1020.96 1021.28 1021.54 1021.71 1021.81 1021.85 1021.86 1021.86 1021.88 1021.93 1022.03 1022.15 1022.29 1022.42 1022.53 1022.61 1022.66 1022.67 1022.66 1022.63 1022.59 1022.56 1022.52 1022.49 1022.45 1022.42 1022.37 1022.30 1022.22 1022.11 1021.98 1021.81 1021.62 1021.41
1017.54 1017.89 1018.23 1018.57 1018.93 1019.33 1019.76 1020.21 1020.68 1021.11 1021.49 1021.80 1022.02 1022.15 1022.22 1022.24 1022.24 1022.25 1022.29 1022.36 1022.46 1022.58 1022.69 1022.79 1022.85 1022.88 1022.87 1022.83 1022.77 1022.70 1022.64 1022.58 1022.53 1022.50 1022.47 1022.44 1022.41 1022.36 1022.28 1022.17 1022.02 1021.84 1021.64
1016.97 1017.37 1017.77 1018.19 1018.65 1019.14 1019.65 1020.19 1020.73 1021.23 1021.67 1022.03 1022.30 1022.47 1022.57 1022.61 1022.63 1022.63 1022.66 1022.70 1022.77 1022.86 1022.94 1023.02 1023.07 1023.08 1023.06 1023.00 1022.92 1022.82 1022.73 1022.64 1022.57 1022.52 1022.49 1022.46 1022.44 1022.40 1022.34 1022.24 1022.11 1021.94 1021.74
1016.32 1016.77 1017.25 1017.76 1018.30 1018.88 1019.48 1020.09 1020.69 1021.25 1021.74 1022.16 1022.48 1022.70 1022.85 1022.93 1022.97 1022.98 1023.00 1023.03 1023.07 1023.13 1023.19 1023.24 1023.28 1023.28 1023.25 1023.18 1023.08 1022.97 1022.85 1022.73 1022.62 1022.54 1022.48 1022.43 1022.39 1022.34 1022.28 1022.19 1022.06 1021.90 1021.71
1015.59 1016.11 1016.66 1017.26 1017.89 1018.54 1019.20 1019.86 1020.50 1021.10 1021.64 1022.10 1022.48 1022.77 1022.98 1023.12 1023.20 1023.25 1023.28 1023.31 1023.34 1023.38 1023.42 1023.46 1023.49 1023.49 1023.45 1023.38 1023.28 1023.14 1022.99 1022.84 1022.69 1022.56 1022.45 1022.36 1022.29 1022.21 1022.13 1022.03 1021.90 1021.74 1021.55
1014.83 1015.40 1016.02 1016.68 1017.37 1018.07 1018.77 1019.46 1020.12 1020.74 1021.31 1021.82 1022.25 1022.61 1022.90 1023.12 1023.27 1023.37 1023.44 1023.49 1023.54 1023.58 1023.62 1023.66 1023.68 1023.68 1023.66 1023.59 1023.48 1023.33 1023.16 1022.97 1022.77 1022.59 1022.42 1022.27 1022.14 1022.02 1021.91 1021.79 1021.65 1021.49 1021.31
1014.04 1014.65 1015.32 1016.03 1016.75 1017.47 1018.17 1018.86 1019.51 1020.13 1020.72 1021.26 1021.76 1022.20 1022.58 1022.89 1023.14 1023.32 1023.46 1023.56 1023.63 1023.69 1023.75 1023.80 1023.84 1023.85 1023.84 1023.78 1023.67 1023.51 1023.31 1023.09 1022.84 1022.60 1022.37 1022.16 1021.97 1021.80 1021.65 1021.50 1021.34 1021.17 1021.00
1013.24 1013.88 1014.57 1015.29 1016.02 1016.73 1017.41 1018.07 1018.70 1019.30 1019.90 1020.47 1021.03 1021.55 1022.03 1022.45 1022.80 1023.09 1023.31 1023.48 1023.60 1023.71 1023.79 1023.87 1023.93 1023.96 1023.96 1023.92 1023.81 1023.65 1023.43 1023.17 1022.89 1022.59 1022.30 1022.03 1021.79 1021.57 1021.37 1021.19 1021.02 1020.84 1020.66
1012.45 1013.10 1013.79 1014.51 1015.22 1015.90 1016.54 1017.16 1017.75 1018.33 1018.93 1019.53 1020.13 1020.73 1021.31 1021.84 1022.30 1022.69 1023.01 1023.26 1023.45 1023.60 1023.73 1023.84 1023.93 1023.99 1024.01 1023.98 1023.88 1023.72 1023.49 1023.21 1022.89 1022.55 1022.22 1021.90 1021.61 1021.35 1021.11 1020.90 1020.70 1020.51 1020.32
1011.68 1012.33 1013.02 1013.72 1014.40 1015.04 1015.65 1016.22 1016.78 1017.34 1017.93 1018.55 1019.21 1019.88 1020.54 1021.16 1021.72 1022.21 1022.61 1022.94 1023.20 1023.41 1023.59 1023.73 1023.85 1023.94 1023.98 1023.96 1023.88 1023.71 1023.48 1023.18 1022.84 1022.48 1022.12 1021.77 1021.44 1021.14 1020.88 1020.63 1020.40 1020.19 1019.98
1010.96 1011.60 1012.28 1012.97 1013.63 1014.25 1014.82 1015.36 1015.90 1016.45 1017.04 1017.69 1018.38 1019.10 1019.82 1020.52 1021.16 1021.72 1022.19 1022.58 1022.90 1023.16 1023.38 1023.56 1023.71 1023.82 1023.88 1023.87 1023.79 1023.63 1023.39 1023.09 1022.75 1022.37 1021.99 1021.63 1021.28 1020.96 1020.66 1020.39 1020.13 1019.88 1019.65
1010.30 1010.94 1011.63 1012.31 1012.96 1013.57 1014.14 1014.68 1015.21 1015.77 1016.38 1017.05 1017.77 1018.52 1019.29 1020.03 1020.71 1021.32 1021.84 1022.27 1022.63 1022.92 1023.17 1023.38 1023.55 1023.67 1023.74 1023.73 1023.65 1023.49 1023.25 1022.95 1022.60 1022.22 1021.84 1021.47 1021.11 1020.78 1020.46 1020.15 1019.86 1019.57 1019.30
1009.73 1010.39 1011.09 1011.79 1012.46 1013.08 1013.67 1014.23 1014.79 1015.38 1016.01 1016.71 1017.45 1018.22 1019.00 1019.76 1020.45 1021.07 1021.60 1022.05 1022.43 1022.74 1023.01 1023.22 1023.40 1023.52 1023.58 1023.57 1023.47 1023.30 1023.05 1022.74 1022.39 1022.02 1021.65 1021.28 1020.92 1020.57 1020.23 1019.89 1019.56 1019.23 1018.92
1009.30 1009.98 1010.70 1011.42 1012.13 1012.80 1013.43 1014.04 1014.65 1015.28 1015.96 1016.68 1017.44 1018.22 1019.00 1019.74 1020.42 1021.02 1021.54 1021.98 1022.35 1022.66 1022.92 1023.13 1023.30 1023.40 1023.44 1023.40 1023.28 1023.08 1022.81 1022.49 1022.13 1021.76 1021.39 1021.02 1020.66 1020.31 1019.95 1019.59 1019.21 1018.84 1018.47
1009.02 1009.72 1010.47 1011.24 1011.98 1012.71 1013.40 1014.08 1014.76 1015.46 1016.18 1016.93 1017.71 1018.48 1019.24 1019.95 1020.59 1021.16 1021.64 1022.05 1022.40 1022.69 1022.92 1023.11 1023.25 1023.32 1023.32 1023.23 1023.06 1022.82 1022.51 1022.16 1021.79 1021.41 1021.04 1020.67 1020.31 1019.95 1019.58 1019.19 1018.79 1018.37 1017.96
1008.94 1009.66 1010.43 1011.23 1012.02 1012.80 1013.57 1014.32 1015.07 1015.83 1016.61 1017.39 1018.17 1018.94 1019.66 1020.32 1020.92 1021.43 1021.87 1022.23 1022.54 1022.79 1023.00 1023.15 1023.24 1023.26 1023.20 1023.05 1022.82 1022.52 1022.16 1021.77 1021.36 1020.97 1020.58 1020.21 1019.85 1019.48 1019.10 1018.69 1018.25 1017.80 1017.35
1009.08 1009.80 1010.58 1011.40 1012.22 1013.05 1013.87 1014.69 1015.51 1016.32 1017.13 1017.94 1018.72 1019.47 1020.15 1020.77 1021.30 1021.75 1022.13 1022.45 1022.71 1022.92 1023.08 1023.18 1023.22 1023.18 1023.05 1022.83 1022.53 1022.16 1021.74 1021.29 1020.85 1020.42 1020.01 1019.63 1019.26 1018.88 1018.49 1018.06 1017.61 1017.13 1016.65
1009.46 1010.16 1010.93 1011.74 1012.58 1013.43 1014.28 1015.14 1016.00 1016.85 1017.68 1018.50 1019.26 1019.98 1020.62 1021.17 1021.65 1022.04 1022.36 1022.62 1022.82 1022.98 1023.09 1023.15 1023.13 1023.02 1022.83 1022.53 1022.16 1021.72 1021.23 1020.73 1020.24 1019.78 1019.35 1018.95 1018.56 1018.18 1017.77 1017.33 1016.86 1016.36 1015.86
1010.06 1010.73 1011.47 1012.26 1013.08 1013.92 1014.77 1015.64 1016.50 1017.36 1018.19 1018.99 1019.72 1020.39 1020.97 1021.47 1021.88 1022.20 1022.46 1022.66 1022.81 1022.92 1022.98 1022.98 1022.91 1022.74 1022.48 1022.13 1021.69 1021.19 1020.66 1020.11 1019.58 1019.09 1018.63 1018.21 1017.80 1017.40 1016.98 1016.52 1016.03 1015.51 1014.98
1010.89 1011.51 1012.20 1012.93 1013.71 1014.51 1015.34 1016.17 1017.01 1017.84 1018.63 1019.38 1020.06 1020.67 1021.18 1021.61 1021.94 1022.20 1022.39 1022.53 1022.63 1022.68 1022.69 1022.64 1022.52 1022.31 1022.01 1021.61 1021.13 1020.59 1020.03 1019.45 1018.90 1018.38 1017.90 1017.46 1017.03 1016.60 1016.15 1015.67 1015.15 1014.61 1014.06
1011.89 1012.46 1013.09 1013.76 1014.47 1015.20 1015.96 1016.74 1017.51 1018.27 1019.00 1019.67 1020.28 1020.80 1021.24 1021.58 1021.84 1022.02 1022.14 1022.21 1022.25 1022.25 1022.21 1022.12 1021.96 1021.72 1021.40 1020.98 1020.49 1019.95 1019.38 1018.80 1018.24 1017.71 1017.21 1016.75 1016.29 1015.83 1015.35 1014.83 1014.28 1013.70 1013.10
1013.01 1013.53 1014.09 1014.69 1015.32 1015.97 1016.64 1017.32 1018.00 1018.66 1019.30 1019.88 1020.39 1020.81 1021.16 1021.41 1021.58 1021.68 1021.73 1021.74 1021.71 1021.66 1021.58 1021.45 1021.27 1021.02 1020.69 1020.29 1019.82 1019.30 1018.74 1018.19 1017.64 1017.12 1016.61 1016.13 1015.64 1015.14 1014.62 1014.04 1013.44 1012.81 1012.17
1014.20 1014.67 1015.16 1015.68 1016.22 1016.77 1017.34 1017.91 1018.47 1019.02 1019.54 1020.01 1020.41 1020.74 1020.98 1021.14 1021.23 1021.25 1021.22 1021.17 1021.08 1020.98 1020.85 1020.70 1020.50 1020.25 1019.94 1019.57 1019.14 1018.67 1018.17 1017.65 1017.14 1016.63 1016.13 1015.62 1015.10 1014.56 1013.97 1013.34 1012.67 1011.98 1011.28
1015.38 1015.80 1016.23 1016.67 1017.11 1017.56 1018.01 1018.46 1018.91 1019.34 1019.73 1020.09 1020.39 1020.61 1020.77 1020.84 1020.85 1020.80 1020.71 1020.59 1020.45 1020.29 1020.13 1019.95 1019.75 1019.51 1019.23 1018.90 1018.53 1018.12 1017.67 1017.21 1016.73 1016.24 1015.74 1015.21 1014.65 1014.06 1013.41 1012.71 1011.97 1011.21 1010.45
1016.48 1016.85 1017.22 1017.58 1017.93 1018.28 1018.62 1018.95 1019.28 1019.59 1019.88 1020.13 1020.33 1020.48 1020.55 1020.56 1020.51 1020.40 1020.25 1020.08 1019.89 1019.70 1019.50 1019.30 1019.09 1018.87 1018.61 1018.32 1018.00 1017.64 1017.25 1016.84 1016.39 1015.91 1015.41 1014.86 1014.26 1013.60 1012.89 1012.13 1011.33 1010.50 1009.68
Thickness
5669 5667 5664 5661 5659 5656 5654 5651 5649 5647 5645 5643 5641 5640 5638 5636 5634 5633 5630 5628 5625 5623 5620 5618 5616 5615 5614 5613 5612 5612 5611 5611 5611 5611 5612 5612 5613 5613 5614 5615 5616 5617 5618
5666 5663 5660 5657 5654 5652 5649 5646 5643 5641 5639 5637 5634 5632 5630 5628 5626 5624 5622 5619 5616 5614 5612 5610 5608 5606 5605 5605 5604 5603 5603 5603 5602 5602 5603 5603 5603 5604 5605 5606 5607 5607 5609
5664 5660 5656 5653 5650 5647 5644 5641 5637 5635 5632 5630 5627 5625 5622 5620 5618 5616 5613 5610 5608 5605 5603 5601 5599 5598 5596 5596 5595 5595 5594 5594 5593 5593 5593 5594 5594 5595 5595 5596 5597 5598 5599
5662 5657 5653 5650 5647 5643 5639 5636 5632 5627 5625 5622 5620 5617 5615 5612 5610 5607 5605 5602 5599 5597 5595 5593 5591 5589 5588 5587 5586 5586 5586 5585 5585 5584 5584 5584 5584 5585 5585 5586 5587 5588 5589
5660 5656 5652 5647 5643 5639 5635 5631 5626 5623 5618 5615 5612 5609 5607 5604 5602 5599 5596 5593 5591 5589 5586 5584 5583 5581 5579 5578 5578 5577 5577 5577 5576 5575 5575 5574 5574 5575 5575 5575 5576 5577 5578
5658 5655 5650 5645 5640 5635 5630 5626 5621 5617 5612 5609 5606 5601 5598 5596 5594 5591 5589 5586 5583 5581 5578 5576 5575 5573 5571 5570 5569 5568 5568 5567 5567 5566 5565 5564 5564 5564 5564 5564 5565 5566 5567
5657 5653 5648 5642 5637 5633 5629 5624 5617 5611 5605 5602 5597 5592 5589 5588 5586 5584 5581 5579 5576 5573 5571 5568 5566 5564 5563 5561 5560 5559 5558 5558 5557 5556 5555 5554 5554 5554 5553 5554 5554 5554 5556
5655 5650 5646 5640 5635 5630 5624 5620 5616 5607 5601 5597 5594 5587 5582 5579 5578 5577 5574 5572 5570 5567 5563 5561 5558 5556 5554 5552 5550 5549 5548 5547 5547 5546 5545 5544 5544 5544 5543 5543 5543 5543 5544
5652 5648 5644 5639 5633 5629 5624 5619 5616 5609 5599 5592 5591 5588 5580 5577 5571 5567 5565 5564 5562 5559 5556 5553 5550 5547 5545 5543 5541 5540 5538 5537 5536 5535 5535 5534 5534 5533 5533 5533 5533 5533 5533
5649 5645 5640 5636 5632 5628 5623 5619 5614 5609 5601 5591 5584 5582 5580 5577 5568 5560 5557 5554 5553 5550 5547 5544 5541 5538 5535 5533 5531 5529 5527 5525 5524 5524 5523 5522 5522 5522 5521 5521 5521 5522 5522
5644 5641 5638 5633 5629 5625 5622 5616 5610 5606 5601 5594 5585 5576 5571 5565 5563 5559 5552 5546 5543 5541 5538 5535 5531 5528 5525 5522 5519 5517 5515 5513 5512 5511 5510 5509 5509 5509 5509 5509 5509 5509 5509
5636 5635 5632 5629 5626 5621 5617 5612 5607 5602 5598 5592 5585 5579 5572 5565 5557 5553 5547 5539 5534 5531 5527 5524 5521 5517 5513 5510 5507 5505 5503 5500 5499 5497 5496 5496 5496 5496 5495 5495 5494 5494 5494
5629 5628 5626 5623 5619 5616 5611 5605 5600 5595 5591 5586 5580 5573 5568 5562 5555 5548 5540 5530 5523 5518 5514 5512 5510 5506 5501 5498 5495 5492 5489 5486 5484 5483 5482 5482 5482 5481 5480 5479 5479 5479 5478
5626 5624 5620 5616 5612 5607 5602 5597 5591 5586 5581 5577 5570 5564 5557 5550 5545 5539 5531 5520 5511 5504 5501 5500 5497 5493 5489 5486 5482 5479 5475 5472 5470 5469 5468 5467 5466 5465 5464 5463 5463 5462 5462
5614 5611 5608 5605 5601 5597 5593 5587 5581 5576 5570 5565 5558 5551 5544 5537 5531 5525 5518 5512 5503 5495 5491 5488 5483 5481 5477 5473 5469 5465 5461 5458 5456 5455 5453 5452 5450 5449 5448 5447 5446 5446 5445
5598 5596 5594 5591 5588 5584 5580 5575 5569 5564 5557 5551 5545 5538 5530 5522 5515 5509 5503 5497 5490 5484 5478 5474 5470 5467 5464 5460 5455 5451 5447 5444 5441 5439 5438 5436 5434 5433 5432 5431 5430 5428 5427
5582 5581 5580 5577 5574 5570 5566 5561 5556 5551 5545 5537 5531 5524 5515 5508 5501 5494 5488 5482 5476 5469 5465 5462 5456 5453 5448 5444 5441 5436 5433 5429 5426 5422 5421 5419 5417 5416 5414 5412 5411 5409 5407
5565 5566 5565 5563 5560 5556 5553 5549 5544 5538 5532 5524 5517 5509 5501 5494 5487 5480 5474 5469 5463 5457 5451 5448 5442 5436 5432 5429 5426 5422 5418 5414 5410 5406 5403 5401 5399 5396 5393 5391 5389 5387 5385
5547 5549 5549 5547 5545 5542 5539 5535 5531 5525 5518 5510 5503 5496 5488 5482 5474 5468 5462 5456 5449 5444 5437 5432 5428 5422 5417 5413 5410 5406 5403 5398 5393 5389 5385 5382 5378 5374 5371 5368 5366 5364 5362
5530 5532 5532 5530 5529 5526 5524 5520 5516 5510 5504 5496 5489 5483 5476 5469 5463 5456 5450 5443 5436 5430 5423 5418 5413 5408 5402 5398 5392 5389 5389 5383 5378 5372 5367 5362 5357 5353 5348 5344 5343 5340 5338
5513 5515 5515 5513 5512 5511 5509 5506 5502 5496 5490 5483 5476 5469 5463 5457 5452 5445 5438 5431 5425 5418 5410 5404 5399 5393 5388 5382 5376 5372 5370 5367 5363 5355 5351 5343 5336 5332 5327 5323 5321 5319 5318
5497 5498 5499 5499 5499 5498 5495 5492 5488 5482 5476 5470 5463 5457 5451 5445 5438 5432 5427 5422 5414 5406 5397 5390 5384 5378 5373 5366 5360 5355 5350 5347 5346 5338 5331 5328 5316 5316 5313 5309 5305 5303 5302
5483 5484 5485 5486 5486 5484 5482 5479 5474 5469 5463 5457 5451 5445 5440 5432 5424 5418 5413 5408 5400 5392 5386 5380 5372 5364 5357 5351 5345 5339 5332 5326 5323 5316 5312 5317 5308 5306 5303 5298 5293 5291 5290
5472 5473 5473 5474 5474 5472 5470 5467 5462 5456 5450 5444 5438 5432 5425 5418 5412 5408 5402 5394 5385 5377 5370 5364 5356 5349 5342 5335 5328 5323 5317 5313 5308 5301 5295 5301 5303 5299 5297 5290 5284 5282 5281
5462 5462 5463 5463 5463 5460 5458 5455 5450 5444 5439 5432 5426 5419 5413 5407 5403 5398 5391 5381 5373 5364 5356 5348 5341 5334 5326 5319 5312 5307 5300 5295 5298 5296 5287 5286 5292 5291 5291 5287 5282 5277 5275
5454 5453 5452 5452 5451 5449 5448 5444 5439 5433 5427 5420 5414 5408 5402 5397 5391 5385 5377 5367 5358 5350 5342 5333 5324 5315 5309 5302 5297 5292 5287 5282 5282 5284 5282 5277 5278 5275 5284 5287 5279 5273 5269